This is the latest recevied weather packets stored in our database for station/object KC7WRB. If no packets are shown the sender has not sent any weather packets the latest 10 day(s).
| Time | Temp. | Humidity | Pressure | Rain* | Wind** | Luminosity | Snow |
|---|---|---|---|---|---|---|---|
| 1778365693 | 26.67° C | 13% | 1018.6 hPa | 0 mm | - | 738 W/m² | - |
| 1778365388 | 27.22° C | 13% | 1018.7 hPa | 0 mm | - | 753 W/m² | - |
| 1778365084 | 26.67° C | 13% | 1018.7 hPa | 0 mm | - | 764 W/m² | - |
| 1778364782 | 26.11° C | 14% | 1019 hPa | 0 mm | - | 776 W/m² | - |
| 1778364476 | 26.67° C | 14% | 1018.9 hPa | 0 mm | - | 789 W/m² | - |
| 1778364173 | 27.22° C | 14% | 1018.9 hPa | 0 mm | - | 801 W/m² | - |
| 1778363868 | 26.67° C | 14% | 1018.6 hPa | 0 mm | - | 813 W/m² | - |
| 1778363565 | 26.67° C | 14% | 1019.2 hPa | 0 mm | - | 823 W/m² | - |
| 1778363262 | 26.67° C | 14% | 1019 hPa | 0 mm | - | 834 W/m² | - |
| 1778362959 | 26.67° C | 15% | 1019.2 hPa | 0 mm | - | 844 W/m² | - |
| 1778362656 | 26.11° C | 14% | 1019.3 hPa | 0 mm | - | 852 W/m² | - |
| 1778362352 | 25.56° C | 15% | 1019.5 hPa | 0 mm | - | 861 W/m² | - |
| 1778362050 | 26.11° C | 15% | 1019.3 hPa | 0 mm | - | 869 W/m² | - |
| 1778361747 | 26.11° C | 15% | 1019.5 hPa | 0 mm | - | 876 W/m² | - |
| 1778361442 | 25.56° C | 15% | 1019.7 hPa | 0 mm | - | 883 W/m² | - |
| 1778361139 | 25.56° C | 17% | 1019.4 hPa | 0 mm | - | 891 W/m² | - |
| 1778360836 | 25.56° C | 15% | 1019.7 hPa | 0 mm | - | 897 W/m² | - |
| 1778360533 | 25.56° C | 16% | 1019.7 hPa | 0 mm | - | 902 W/m² | - |
| 1778360233 | 25.56° C | 15% | 1019.5 hPa | 0 mm | - | 907 W/m² | - |
| 1778359932 | 25.56° C | 15% | 1019.5 hPa | 0 mm | - | 911 W/m² | - |
| 1778359629 | 25.56° C | 15% | 1019.8 hPa | 0 mm | - | 917 W/m² | - |
| 1778359325 | 25.56° C | 15% | 1019.8 hPa | 0 mm | - | 921 W/m² | - |
| 1778359021 | 25° C | 16% | 1020 hPa | 0 mm | - | 926 W/m² | - |
| 1778358720 | 25.56° C | 15% | 1019.8 hPa | 0 mm | - | 930 W/m² | - |
| 1778358415 | 25.56° C | 16% | 1019.8 hPa | 0 mm | - | 931 W/m² | - |
* Rain latest hour (hover to see other rain measurements)
** Current wind speed in m/s (hover to see current wind gust speed)